This is the latest recevied weather packets stored in our database for station/object K9JWM. If no packets are shown the sender has not sent any weather packets the latest 1 day(s).
| Time | Temp. | Humidity | Pressure | Rain* | Wind** | Luminosity | Snow |
|---|---|---|---|---|---|---|---|
| 1778036530 | 3.33° C | 63% | 1011.8 hPa | 0 mm | 0.89 m/s, 308° | - | - |
| 1778035629 | 3.33° C | 61% | 1011.8 hPa | 0 mm | 0.45 m/s, 7° | - | - |
| 1778034729 | 3.33° C | 60% | 1011.8 hPa | 0 mm | 0.89 m/s, 288° | - | - |
| 1778033831 | 3.89° C | 61% | 1011.5 hPa | 0 mm | 0 m/s | - | - |
| 1778032930 | 3.89° C | 58% | 1011.4 hPa | 0 mm | 0.89 m/s, 322° | - | - |
| 1778032029 | 4.44° C | 58% | 1011.2 hPa | 0 mm | 0.89 m/s, 306° | - | - |
| 1778031130 | 4.44° C | 57% | 1011 hPa | 0 mm | 0.89 m/s, 332° | - | - |
| 1778030231 | 4.44° C | 58% | 1010.8 hPa | 0 mm | 0.89 m/s, 270° | - | - |
| 1778029329 | 4.44° C | 58% | 1010.6 hPa | 0 mm | 0.89 m/s, 265° | - | - |
| 1778028430 | 5° C | 58% | 1010.6 hPa | 0 mm | 0.45 m/s, 313° | - | - |
| 1778027531 | 5° C | 55% | 1010.5 hPa | 0 mm | 1.34 m/s, 283° | - | - |
| 1778026631 | 5° C | 55% | 1010.5 hPa | 0 mm | 0.89 m/s, 253° | - | - |
| 1778025729 | 5.56° C | 53% | 1010.2 hPa | 0 mm | 2.24 m/s, 276° | - | - |
| 1778024831 | 5.56° C | 53% | 1010.1 hPa | 0 mm | 2.68 m/s, 272° | - | - |
| 1778023929 | 5.56° C | 57% | 1010 hPa | 0 mm | 3.13 m/s, 264° | - | - |
| 1778023029 | 5.56° C | 56% | 1009.8 hPa | 0 mm | 1.34 m/s, 304° | - | - |
| 1778022129 | 5.56° C | 55% | 1009.8 hPa | 0 mm | 0.45 m/s, 320° | - | - |
| 1778021230 | 5.56° C | 50% | 1009.9 hPa | 0 mm | 3.58 m/s, 287° | - | - |
| 1778020329 | 5.56° C | 51% | 1009.8 hPa | 0 mm | 2.24 m/s, 304° | - | - |
| 1778019430 | 6.11° C | 51% | 1009.8 hPa | 0 mm | 2.24 m/s, 273° | - | - |
| 1778018530 | 6.11° C | 50% | 1009.7 hPa | 0 mm | 3.58 m/s, 314° | - | - |
| 1778017629 | 6.11° C | 53% | 1009.7 hPa | 0 mm | 3.13 m/s, 256° | - | - |
| 1778016730 | 5.56° C | 52% | 1009.7 hPa | 0 mm | 3.13 m/s, 281° | - | - |
| 1778015830 | 5.56° C | 52% | 1009.7 hPa | 0 mm | 4.02 m/s, 264° | - | - |
| 1778014930 | 5.56° C | 57% | 1009.6 hPa | 0 mm | 4.47 m/s, 262° | - | - |
* Rain latest hour (hover to see other rain measurements)
** Current wind speed in m/s (hover to see current wind gust speed)